Weather History for PASN - March, 2014

Change the Weather History Date:

Wednesday, March 19, 2014

  Actual Average Record
Temperature  
Mean Temperature 31 °F 25 °F  
Max Temperature 34 °F 29 °F 40 °F (1987)
Min Temperature 27 °F 20 °F -6 °F (1976)
Degree Days  
Heating Degree Days 34 40  
Month to date heating degree days 851 760  
Since 1 July heating degree days 7297 7679  
Cooling Degree Days 0    
Month to date cooling degree days 0  
Year to date cooling degree days 0  
Moisture  
Dew Point 25 °F    
Average Humidity 0    
Maximum Humidity 0    
Minimum Humidity 0    
Precipitation  
Precipitation T in 0.03 in 0.25 in (2011)
Month to date precipitation 0.63 0.65  
Year to date precipitation 4.96 3.53  
Snow  
Snow T in 0.20 in 2.10 in (1992)
Month to date snowfall 7.7 4.9  
Since 1 July snowfall 42.0 49.9  
Snow Depth 11.00 in    
Sea Level Pressure  
Sea Level Pressure 30.07 in    
Wind  
Wind Speed 30 mph (East)    
Max Wind Speed 41 mph    
Max Gust Speed 49 mph    
Visibility 6 miles    
Events Snow    
T = Trace of Precipitation, MM = Missing Value Source: NWS Daily Summary

Daily Weather History Graph

Daily Weather History Graph

Search for Another Location

Airport or City:

Trip Planner

Search our weather history database for the weather conditions in past years. The results will help you decide how hot, cold, wet, or windy it might be!

Date:

Astronomy

Mar. 19, 2014 Rise Set
Actual Time 9:24 AM AKDT 9:33 PM AKDT
Civil Twilight 8:46 AM AKDT 10:11 PM AKDT
Nautical Twilight 8:01 AM AKDT 10:57 PM AKDT
Astronomical Twilight 7:12 AM AKDT 11:46 PM AKDT
Moon 12:37 AM AKDT (3/19) 10:20 AM AKDT (3/19)
Length of Visible Light 13h 25m
Length of Day
12h 08m
Waning Gibbous, 90% of the Moon is Illuminated
Mar 19
Waning Gibbous
Mar 23
Last Quarter
Mar 30
New
Apr 7
First Quarter
Apr 14
Full

Hourly Weather History & Observations

Time (AKDT) Temp. Windchill Dew Point Humidity Pressure Visibility Wind Dir Wind Speed Gust Speed Precip Events Conditions
12:53 AM 27.0 °F 10.5 °F 19.9 °F 75% 30.23 in 5.0 mi ESE 31.1 mph 42.6 mph 0.00 in   Scattered Clouds
1:04 AM 27.0 °F 10.8 °F 19.9 °F 75% 30.23 in 6.0 mi East 29.9 mph 38.0 mph 0.00 in Snow Blowing Snow
1:53 AM 27.0 °F 11.3 °F 19.9 °F 75% 30.22 in 6.0 mi East 27.6 mph 38.0 mph 0.00 in Snow Blowing Snow
2:34 AM 27.0 °F 11.3 °F 19.9 °F 75% 30.20 in 6.0 mi East 27.6 mph 38.0 mph N/A Snow Blowing Snow
2:53 AM 27.0 °F 11.0 °F 19.9 °F 75% 30.20 in 6.0 mi East 28.8 mph 38.0 mph N/A Snow Blowing Snow
3:53 AM 27.0 °F 9.8 °F 19.0 °F 72% 30.18 in 6.0 mi East 34.5 mph 40.3 mph N/A Snow Blowing Snow
4:53 AM 28.0 °F 11.3 °F 19.9 °F 72% 30.14 in 6.0 mi East 34.5 mph 40.3 mph N/A Snow Blowing Snow
5:53 AM 28.0 °F 12.0 °F 21.9 °F 78% 30.12 in 7.0 mi East 31.1 mph 40.3 mph N/A   Mostly Cloudy
6:53 AM 28.0 °F 10.9 °F 23.0 °F 81% 30.08 in 3.0 mi East 36.8 mph 48.3 mph 0.00 in Snow Light Snow
7:53 AM 28.0 °F 11.3 °F 24.1 °F 85% 30.08 in 4.0 mi East 34.5 mph 42.6 mph 0.00 in Snow Light Snow
8:53 AM 28.9 °F 13.0 °F 24.1 °F 82% 30.06 in 5.0 mi East 32.2 mph 47.2 mph 0.00 in Snow Blowing Snow
9:53 AM 28.9 °F 12.5 °F 25.0 °F 85% 30.06 in 6.0 mi East 34.5 mph 41.4 mph N/A Snow Blowing Snow
10:53 AM 30.0 °F 14.0 °F 25.0 °F 82% 30.05 in 6.0 mi East 34.5 mph 46.0 mph N/A Snow Blowing Snow
11:42 AM 30.9 °F 15.3 °F 26.1 °F 82% 30.05 in 7.0 mi East 34.5 mph 39.1 mph N/A   Overcast
11:53 AM 30.9 °F 15.5 °F 26.1 °F 82% 30.06 in 6.0 mi East 33.4 mph 40.3 mph N/A Snow Blowing Snow
12:53 PM 32.0 °F 17.6 °F 27.0 °F 82% 30.05 in 6.0 mi East 29.9 mph 39.1 mph N/A Snow Blowing Snow
1:53 PM 33.1 °F 19.6 °F 28.0 °F 82% 30.04 in 7.0 mi East 27.6 mph - N/A   Mostly Cloudy
2:53 PM 34.0 °F 21.5 °F 28.9 °F 82% 30.04 in 7.0 mi East 24.2 mph 32.2 mph N/A   Mostly Cloudy
3:53 PM 34.0 °F 21.0 °F 28.0 °F 79% 30.03 in 7.0 mi ESE 26.5 mph 36.8 mph N/A   Mostly Cloudy
4:53 PM 34.0 °F 20.5 °F 28.9 °F 82% 30.01 in 7.0 mi East 28.8 mph 36.8 mph N/A   Mostly Cloudy
5:53 PM 34.0 °F 21.5 °F 28.9 °F 82% 30.01 in 6.0 mi East 24.2 mph 34.5 mph N/A   Haze
6:33 PM 33.1 °F 19.8 °F 28.9 °F 85% 30.00 in 5.0 mi East 26.5 mph - N/A   Mostly Cloudy
6:53 PM 33.1 °F 19.3 °F 28.9 °F 85% 30.00 in 5.0 mi East 28.8 mph 34.5 mph N/A   Overcast
7:53 PM 33.1 °F 20.1 °F 28.0 °F 82% 30.00 in 6.0 mi East 25.3 mph 35.7 mph N/A   Haze
8:53 PM 32.0 °F 18.9 °F 28.0 °F 85% 30.00 in 5.0 mi East 24.2 mph 33.4 mph N/A   Overcast
9:08 PM 32.0 °F 18.4 °F 28.0 °F 85% 30.00 in 5.0 mi East 26.5 mph 38.0 mph N/A   Overcast
9:37 PM 32.0 °F 17.6 °F 27.0 °F 82% 29.99 in 6.0 mi East 29.9 mph 36.8 mph N/A   Haze
9:53 PM 32.0 °F 17.6 °F 27.0 °F 82% 30.00 in 7.0 mi East 29.9 mph 38.0 mph N/A   Mostly Cloudy
10:08 PM 32.0 °F 18.1 °F 27.0 °F 82% 29.99 in 7.0 mi East 27.6 mph 39.1 mph N/A   Mostly Cloudy
10:53 PM 32.0 °F 17.0 °F 27.0 °F 82% 29.99 in 7.0 mi East 33.4 mph 39.1 mph N/A   Mostly Cloudy
11:25 PM 32.0 °F 17.6 °F 27.0 °F 82% 29.99 in 7.0 mi East 29.9 mph 36.8 mph N/A   Mostly Cloudy
11:53 PM 32.0 °F 18.4 °F 28.0 °F 85% 29.99 in 7.0 mi East 26.5 mph 29.9 mph N/A   Overcast